Flag for Poland Weather past 2 weeks in Bytom, Poland

Now
36 °F

Fog.


Feels Like: 36 °F
Forecast: 35 / 47 °F
Wind: 1 mph from North

Location: Katowice Airport

Current Time: Feb 28, 2015 at 10:36:52 PM

Latest Report: Feb 28, 2015 at 10:00 PM


Visibility: 2 mi

Pressure: 30.09 "Hg

Humidity: 93%

Dew point: 34 °F

Location of BytomLocation

Historic Weather in Bytom — Graph

°F

Bytom temperature yesterday

Maximum temperature yesterday: 45 °F (at 1:30 PM)
Minimum temperature yesterday: 36 °F (at 6:30 AM)
Average temperature yesterday: 40 °F

Past Weeks' High & Low Weather Summary

 TemperatureHumidityPressure
High52 °F (Feb 15, 2:30 PM)100% (Feb 15, 12:30 AM)30.69 "Hg (Feb 15, 12:30 AM)
Low19 °F (Feb 14, 7:30 AM)29% (Feb 21, 1:00 PM)29.53 "Hg (Feb 23, 4:00 PM)
Average36 °F80%30.06 "Hg
* Reported Feb 13 9:00 PM — Feb 28 9:00 PM, Bytom, Weather by CustomWeather, © 2015

Note: Actual official high and low records may vary slightly from our data, if they occured in-between our weather recording intervals... More about our weather records

Advertising

Bytom weather history for previous 24 hours

 ConditionsComfort  
Time TempWeatherWind HumidityBarometerVisibility
9:00 PM
Sat, Feb 28
36 °FFog.1 mph93%30.09 "Hg2 mi
8:30 PM36 °FFog.No wind93%30.09 "Hg2 mi
8:00 PM36 °FFog.1 mph93%30.09 "Hg2 mi
7:30 PM37 °FFog.3 mph87%30.09 "Hg2 mi
7:00 PM37 °FFog.2 mph87%30.09 "Hg2 mi
6:30 PM37 °FFog.1 mph87%30.09 "Hg2 mi
6:00 PM37 °FFog.2 mph87%30.09 "Hg2 mi
5:30 PM37 °FFog.7 mph87%30.07 "Hg2 mi
5:00 PM37 °FFog.7 mph93%30.07 "Hg2 mi
4:30 PM39 °FFog.7 mph87%30.07 "Hg2 mi
4:00 PM39 °FFog.10 mph87%30.07 "Hg2 mi
3:30 PM41 °FScattered clouds.7 mph81%30.07 "Hg4 mi
3:00 PM41 °FClear.7 mph81%30.07 "Hg4 mi
2:30 PM41 °FPassing clouds.9 mph81%30.07 "Hg4 mi
2:00 PM41 °FScattered clouds.9 mph81%30.07 "Hg4 mi
1:30 PM43 °FScattered clouds.8 mph81%30.07 "Hg4 mi
1:00 PM43 °FScattered clouds.8 mph81%30.07 "Hg4 mi
12:30 PM43 °FPassing clouds.7 mph81%30.07 "Hg4 mi
12:00 PM43 °FFog.5 mph81%30.07 "Hg3 mi
11:30 AM43 °FFog.6 mph81%30.07 "Hg3 mi
11:00 AM41 °FFog.5 mph87%30.07 "Hg3 mi
10:30 AM41 °FFog.7 mph87%30.07 "Hg3 mi
10:00 AM41 °FFog.7 mph81%30.07 "Hg2 mi
9:30 AM41 °FFog.6 mph81%30.07 "Hg2 mi
9:00 AM41 °FFog.6 mph81%30.07 "Hg2 mi
8:30 AM39 °FFog.3 mph87%30.04 "Hg2 mi
8:00 AM39 °FFog.3 mph93%30.04 "Hg1 mi
7:30 AM37 °FFog.2 mph100%30.04 "Hg1 mi
7:00 AM37 °FFog.2 mph93%30.01 "Hg1 mi
6:30 AM39 °FFog.3 mph93%30.01 "Hg1 mi
6:00 AM39 °FFog.3 mph93%30.01 "Hg1 mi
5:30 AM37 °FFog.1 mph100%30.01 "Hg1 mi
5:00 AM39 °FFog.2 mph93%29.98 "Hg1 mi
4:30 AM39 °FFog.1 mph93%29.98 "Hg1 mi
4:00 AM37 °FFog.No wind100%29.98 "Hg1 mi
3:30 AM39 °FFog.5 mph93%29.98 "Hg1 mi
3:00 AM41 °FFog.5 mph93%29.98 "Hg1 mi
2:30 AM39 °FFog.2 mph93%29.98 "Hg1 mi
2:00 AM39 °FFog.1 mph93%29.98 "Hg1 mi
1:30 AM37 °FFog.1 mph100%29.98 "Hg1 mi
1:00 AM37 °FFog.No wind100%29.98 "Hg1 mi
12:30 AM39 °FFog.1 mph93%29.98 "Hg1 mi
12:00 AM37 °FFog.1 mph100%29.98 "Hg1 mi
11:30 PM
Fri, Feb 27
37 °FFog.No wind100%29.98 "Hg1 mi
11:00 PM39 °FFog.No wind93%29.98 "Hg1 mi
10:30 PM39 °FFog.No wind93%29.98 "Hg1 mi
10:00 PM39 °FFog.2 mph93%29.98 "Hg2 mi
Weather by CustomWeather, © 2015

See weather overviewHow to use our weather pages